Radiation Dose at Monitoring Post of Fukushima Daini Nuclear Power Station
Date,Time,MP-1(microSv/h),MP-2(microSv/h),MP-3(microSv/h),MP-4(microSv/h),MP-5(microSv/h),MP-6(microSv/h),MP-7(microSv/h),Wind Direction,Wind Velocity(m/s),Rain
2015/09/15,00:00,0.482,0.278,0.500,0.463,0.454,0.225,0.195,north,4.0,No
2015/09/15,00:10,0.478,0.278,0.502,0.460,0.450,0.224,0.194,north-northwest,4.1,No
2015/09/15,00:20,0.482,0.279,0.501,0.463,0.453,0.225,0.195,north,4.0,No
2015/09/15,00:30,0.478,0.278,0.502,0.461,0.450,0.224,0.194,north,5.0,No
2015/09/15,00:40,0.480,0.280,0.500,0.463,0.453,0.224,0.195,north,5.0,No
2015/09/15,00:50,0.477,0.277,0.500,0.461,0.451,0.224,0.195,north,4.9,No
2015/09/15,01:00,0.480,0.280,0.500,0.462,0.452,0.224,0.195,north,4.8,No
2015/09/15,01:10,0.477,0.277,0.500,0.461,0.448,0.224,0.194,north,4.7,No
2015/09/15,01:20,0.482,0.281,0.502,0.464,0.452,0.226,0.194,north,4.7,No
2015/09/15,01:30,0.478,0.278,0.500,0.461,0.450,0.224,0.195,north-northwest,4.5,No
2015/09/15,01:40,0.480,0.280,0.503,0.464,0.452,0.224,0.194,north,4.6,No
2015/09/15,01:50,0.479,0.278,0.499,0.460,0.450,0.225,0.194,north-northwest,4.5,No
2015/09/15,02:00,0.478,0.280,0.505,0.464,0.452,0.223,0.194,north,5.1,No
2015/09/15,02:10,0.479,0.278,0.498,0.460,0.452,0.225,0.194,north-northwest,4.8,No
2015/09/15,02:20,0.480,0.280,0.504,0.464,0.452,0.224,0.194,north-northwest,4.6,No
2015/09/15,02:30,0.482,0.277,0.500,0.461,0.449,0.224,0.194,north,5.3,No
2015/09/15,02:40,0.478,0.278,0.503,0.463,0.451,0.223,0.194,north-northwest,5.5,No
2015/09/15,02:50,0.481,0.279,0.499,0.459,0.451,0.225,0.194,north,5.8,No
2015/09/15,03:00,0.478,0.278,0.503,0.463,0.450,0.224,0.193,north,6.1,No
2015/09/15,03:10,0.481,0.280,0.501,0.460,0.452,0.223,0.194,north,6.1,No
2015/09/15,03:20,0.476,0.278,0.503,0.465,0.450,0.224,0.194,north,5.8,No
2015/09/15,03:30,0.482,0.281,0.499,0.460,0.452,0.226,0.195,north,6.1,No
2015/09/15,03:40,0.476,0.278,0.504,0.463,0.452,0.224,0.194,north,5.9,No
2015/09/15,03:50,0.481,0.280,0.499,0.462,0.452,0.225,0.194,north,6.4,No
2015/09/15,04:00,0.478,0.279,0.505,0.463,0.450,0.223,0.194,north,7.3,No
2015/09/15,04:10,0.480,0.279,0.500,0.461,0.451,0.225,0.194,north,6.8,No
2015/09/15,04:20,0.479,0.279,0.502,0.463,0.451,0.223,0.194,north-northwest,6.4,No
2015/09/15,04:30,0.479,0.278,0.501,0.459,0.448,0.225,0.194,north,6.5,No
2015/09/15,04:40,0.480,0.278,0.498,0.464,0.453,0.223,0.194,north-northwest,6.4,No
2015/09/15,04:50,0.477,0.278,0.502,0.460,0.449,0.224,0.195,north-northwest,6.5,No
2015/09/15,05:00,0.481,0.279,0.497,0.462,0.453,0.223,0.194,north,6.3,No
2015/09/15,05:10,0.476,0.277,0.503,0.463,0.448,0.224,0.193,north-northwest,6.2,No
2015/09/15,05:20,0.481,0.280,0.499,0.461,0.453,0.224,0.192,north-northwest,6.6,No
2015/09/15,05:30,0.477,0.277,0.501,0.463,0.450,0.224,0.195,north-northwest,6.4,No
2015/09/15,05:40,0.480,0.280,0.500,0.460,0.452,0.223,0.193,north-northwest,7.0,No
2015/09/15,05:50,0.479,0.280,0.502,0.464,0.450,0.225,0.194,north-northwest,6.8,No
2015/09/15,06:00,0.479,0.279,0.502,0.460,0.451,0.223,0.195,north-northwest,6.0,No
2015/09/15,06:10,0.481,0.280,0.500,0.464,0.451,0.225,0.195,north-northwest,6.7,No
2015/09/15,06:20,0.476,0.278,0.502,0.461,0.448,0.225,0.193,north-northwest,5.8,No
2015/09/15,06:30,0.482,0.280,0.498,0.461,0.454,0.224,0.193,north-northwest,6.0,No
2015/09/15,06:40,0.476,0.278,0.501,0.462,0.448,0.224,0.193,north-northwest,5.3,No
2015/09/15,06:50,0.481,0.279,0.501,0.459,0.454,0.224,0.195,north-northwest,5.0,No
2015/09/15,07:00,0.480,0.278,0.501,0.463,0.449,0.224,0.193,north-northwest,4.9,No
2015/09/15,07:10,0.479,0.281,0.503,0.459,0.451,0.225,0.194,north-northwest,4.6,No
2015/09/15,07:20,0.482,0.279,0.497,0.460,0.453,0.223,0.195,north,4.3,No
2015/09/15,07:30,0.476,0.278,0.503,0.461,0.448,0.225,0.193,north-northwest,4.5,No
2015/09/15,07:40,0.482,0.280,0.498,0.457,0.452,0.223,0.195,north,5.6,No
2015/09/15,07:50,0.481,0.276,0.500,0.463,0.448,0.225,0.192,north,4.8,No
2015/09/15,08:00,0.477,0.280,0.503,0.457,0.449,0.224,0.193,north,5.6,No
2015/09/15,08:10,0.482,0.278,0.498,0.461,0.453,0.224,0.194,north,5.0,No
2015/09/15,08:20,0.477,0.278,0.503,0.464,0.447,0.225,0.195,north,4.8,No
2015/09/15,08:30,0.478,0.281,0.499,0.457,0.453,0.222,0.193,north,4.8,No
2015/09/15,08:40,0.481,0.280,0.498,0.461,0.454,0.223,0.194,north,4.4,No
2015/09/15,08:50,0.476,0.279,0.503,0.464,0.448,0.225,0.196,north,4.7,No
2015/09/15,09:00,0.481,0.280,0.501,0.457,0.454,0.224,0.194,north,3.7,No
2015/09/15,09:10,0.482,0.278,0.499,0.460,0.454,0.225,0.194,north-northeast,4.0,No
2015/09/15,09:20,0.475,0.278,0.505,0.464,0.447,0.224,0.196,north,3.9,No
2015/09/15,09:30,0.481,0.281,0.501,0.459,0.448,0.224,0.194,north,3.3,No
2015/09/15,09:40,0.479,0.278,0.496,0.460,0.454,0.224,0.193,north-northeast,3.3,No
2015/09/15,09:50,0.475,0.277,0.505,0.463,0.449,0.225,0.195,north,5.0,No
2015/09/15,10:00,0.482,0.281,0.499,0.462,0.448,0.225,0.195,north,4.8,No
2015/09/15,10:10,0.482,0.280,0.497,0.458,0.455,0.223,0.194,north-northeast,4.2,No
2015/09/15,10:20,0.478,0.278,0.505,0.463,0.452,0.223,0.193,north,3.0,No
2015/09/15,10:30,0.480,0.276,0.500,0.462,0.448,0.225,0.193,north,3.5,No
2015/09/15,10:40,0.482,0.278,0.495,0.458,0.445,0.225,0.196,north-northeast,3.7,No
2015/09/15,10:50,0.479,0.281,0.497,0.457,0.447,0.225,0.196,north-northeast,3.5,No
2015/09/15,11:00,0.474,0.279,0.503,0.457,0.453,0.224,0.195,north-northeast,4.3,No
2015/09/15,11:10,0.479,0.277,0.501,0.454,0.454,0.224,0.194,north-northeast,4.0,No
2015/09/15,11:20,0.481,0.278,0.500,0.460,0.450,0.223,0.194,north-northeast,4.0,No
2015/09/15,11:30,0.478,0.277,0.499,0.463,0.449,0.224,0.194,north-northeast,4.7,No
2015/09/15,11:40,0.475,0.280,0.497,0.462,0.446,0.224,0.193,north-northeast,4.1,No
2015/09/15,11:50,0.474,0.280,0.498,0.460,0.448,0.225,0.194,northeast,4.5,No
2015/09/15,12:00,0.484,0.279,0.496,0.460,0.451,0.225,0.194,northeast,3.6,No
2015/09/15,12:10,0.483,0.278,0.499,0.459,0.454,0.227,0.194,north-northeast,5.0,No
2015/09/15,12:20,0.478,0.277,0.499,0.460,0.453,0.225,0.194,north-northeast,4.2,No
2015/09/15,12:30,0.477,0.277,0.499,0.458,0.451,0.226,0.193,north-northeast,4.1,No
2015/09/15,12:40,0.476,0.281,0.498,0.460,0.451,0.225,0.195,northeast,5.2,No
2015/09/15,12:50,0.484,0.282,0.498,0.460,0.449,0.226,0.193,north-northeast,5.2,No
2015/09/15,13:00,0.481,0.279,0.501,0.461,0.447,0.226,0.193,north-northeast,5.0,No
2015/09/15,13:10,0.478,0.278,0.499,0.461,0.448,0.227,0.193,north-northeast,4.5,No
2015/09/15,13:20,0.481,0.276,0.499,0.461,0.446,0.225,0.194,northeast,3.9,No
2015/09/15,13:30,0.486,0.279,0.499,0.459,0.449,0.227,0.193,north-northeast,4.6,No
2015/09/15,13:40,0.482,0.280,0.501,0.460,0.447,0.226,0.194,north-northeast,5.2,No
2015/09/15,13:50,0.478,0.281,0.500,0.460,0.451,0.227,0.194,north-northeast,3.8,No
2015/09/15,14:00,0.482,0.280,0.501,0.460,0.451,0.226,0.196,north-northeast,3.6,No
2015/09/15,14:10,0.483,0.277,0.500,0.464,0.456,0.226,0.197,northeast,3.7,No
2015/09/15,14:20,0.480,0.279,0.498,0.469,0.456,0.226,0.196,northeast,3.5,No
2015/09/15,14:30,0.480,0.281,0.508,0.466,0.454,0.225,0.195,north-northeast,4.5,No
2015/09/15,14:40,0.484,0.280,0.506,0.462,0.449,0.226,0.195,north-northeast,2.9,No
2015/09/15,14:50,0.481,0.281,0.502,0.467,0.456,0.227,0.196,northeast,2.6,No
2015/09/15,15:00,0.481,0.281,0.504,0.468,0.456,0.225,0.196,north-northeast,2.8,No
2015/09/15,15:10,0.484,0.279,0.509,0.462,0.451,0.226,0.195,east-northeast,2.2,No
2015/09/15,15:20,0.481,0.279,0.503,0.464,0.453,0.225,0.198,northeast,2.0,No
2015/09/15,15:30,0.481,0.282,0.502,0.469,0.457,0.227,0.196,north-northeast,1.6,No
2015/09/15,15:40,0.486,0.280,0.508,0.463,0.452,0.225,0.196,east-northeast,1.9,No
2015/09/15,15:50,0.478,0.279,0.502,0.463,0.451,0.227,0.197,east-northeast,1.9,No
2015/09/15,16:00,0.480,0.281,0.501,0.468,0.457,0.225,0.195,northeast,2.2,No
2015/09/15,16:10,0.484,0.278,0.507,0.465,0.452,0.226,0.195,north-northeast,1.9,No
2015/09/15,16:20,0.481,0.280,0.503,0.460,0.450,0.225,0.196,northeast,2.2,No
2015/09/15,16:30,0.482,0.281,0.499,0.467,0.456,0.226,0.196,east-northeast,2.3,No
2015/09/15,16:40,0.483,0.279,0.507,0.465,0.453,0.225,0.194,northeast,1.4,No
2015/09/15,16:50,0.479,0.281,0.503,0.461,0.450,0.225,0.196,northeast,1.1,No
2015/09/15,17:00,0.483,0.281,0.501,0.467,0.458,0.226,0.196,northeast,1.3,No
2015/09/15,17:10,0.485,0.280,0.507,0.465,0.453,0.226,0.195,east-northeast,1.9,No
2015/09/15,17:20,0.478,0.281,0.503,0.460,0.452,0.225,0.196,east,0.6,No
2015/09/15,17:30,0.483,0.280,0.504,0.469,0.455,0.225,0.196,northeast,0.8,No
2015/09/15,17:40,0.481,0.280,0.507,0.464,0.450,0.225,0.196,-,CALM,No
2015/09/15,17:50,0.481,0.281,0.502,0.464,0.457,0.225,0.195,north-northeast,0.5,No
2015/09/15,18:00,0.485,0.281,0.505,0.467,0.453,0.225,0.196,-,CALM,No
2015/09/15,18:10,0.482,0.282,0.506,0.460,0.452,0.226,0.196,southwest,0.7,No
2015/09/15,18:20,0.481,0.278,0.500,0.467,0.456,0.223,0.196,west-southwest,0.8,No
2015/09/15,18:30,0.483,0.282,0.507,0.462,0.450,0.225,0.196,west-southwest,0.8,No
2015/09/15,18:40,0.476,0.280,0.503,0.464,0.456,0.225,0.195,-,CALM,No
2015/09/15,18:50,0.484,0.280,0.503,0.467,0.453,0.226,0.196,-,CALM,No
2015/09/15,19:00,0.481,0.281,0.504,0.462,0.451,0.227,0.195,-,CALM,No
2015/09/15,19:10,0.479,0.279,0.500,0.467,0.456,0.226,0.195,-,CALM,No
2015/09/15,19:20,0.484,0.283,0.506,0.465,0.450,0.225,0.196,northwest,0.9,No
2015/09/15,19:30,0.477,0.281,0.504,0.460,0.456,0.225,0.195,north,0.5,Yes
2015/09/15,19:40,0.483,0.280,0.502,0.470,0.453,0.227,0.197,-,CALM,No
2015/09/15,19:50,0.483,0.281,0.508,0.461,0.452,0.226,0.196,north,0.9,No
2015/09/15,20:00,0.478,0.279,0.502,0.465,0.455,0.224,0.196,north-northwest,1.2,No
2015/09/15,20:10,0.483,0.281,0.505,0.466,0.452,0.226,0.196,north-northwest,1.2,No
2015/09/15,20:20,0.479,0.279,0.506,0.463,0.454,0.224,0.196,north-northwest,1.4,No
2015/09/15,20:30,0.480,0.282,0.500,0.467,0.454,0.226,0.197,north-northwest,1.3,No
2015/09/15,20:40,0.482,0.280,0.507,0.462,0.451,0.224,0.196,northwest,1.3,No
2015/09/15,20:50,0.478,0.280,0.500,0.467,0.455,0.225,0.197,north-northwest,1.6,No
2015/09/15,21:00,0.485,0.281,0.504,0.466,0.451,0.226,0.195,north,1.2,No
2015/09/15,21:10,0.481,0.280,0.506,0.463,0.457,0.226,0.197,northwest,1.3,No
2015/09/15,21:20,0.482,0.282,0.503,0.467,0.452,0.226,0.196,northwest,0.7,No
2015/09/15,21:30,0.483,0.280,0.508,0.460,0.453,0.224,0.196,-,CALM,No
2015/09/15,21:40,0.480,0.281,0.502,0.467,0.455,0.227,0.196,-,CALM,No
2015/09/15,21:50,0.484,0.280,0.505,0.463,0.451,0.226,0.197,-,CALM,No
2015/09/15,22:00,0.478,0.281,0.506,0.464,0.456,0.226,0.196,-,CALM,No
2015/09/15,22:10,0.483,0.281,0.502,0.468,0.451,0.226,0.198,-,CALM,No
2015/09/15,22:20,0.480,0.281,0.506,0.463,0.457,0.225,0.195,-,CALM,No
2015/09/15,22:30,0.483,0.279,0.501,0.467,0.452,0.226,0.196,-,CALM,No
2015/09/15,22:40,0.482,0.281,0.508,0.462,0.456,0.226,0.196,west-southwest,0.6,No
2015/09/15,22:50,0.480,0.279,0.504,0.469,0.452,0.226,0.197,-,CALM,No
2015/09/15,23:00,0.483,0.280,0.503,0.463,0.455,0.225,0.197,west,1.0,No
2015/09/15,23:10,0.480,0.281,0.505,0.466,0.455,0.226,0.197,-,CALM,No
2015/09/15,23:20,0.485,0.280,0.502,0.463,0.453,0.226,0.195,-,CALM,No
2015/09/15,23:30,0.479,0.280,0.507,0.467,0.453,0.226,0.197,south-southwest,1.0,No
2015/09/15,23:40,0.484,0.279,0.502,0.463,0.453,0.225,0.195,-,CALM,No
2015/09/15,23:50,0.479,0.281,0.506,0.466,0.454,0.226,0.197,-,CALM,No
